GW0035 Weather Reports


time (UTC)temp
C
wind
direction
speed
KPH
gust
KPH
rain 1hr
cm
rain 24hr
cm
rain mn
cm
humidity
%
barometer
mb
20260508042153 33 113 1.6 1.6 0.00 0.00 0.00 76 995.9
20260508041653 33 45 1.6 1.6 0.00 0.00 0.00 76 995.9
20260508040153 33 90 1.6 1.6 0.00 0.00 0.00 77 995.9
20260508035654 33 23 1.6 1.6 0.00 0.00 0.00 78 995.9
20260508035153 33 45 1.6 1.6 0.00 0.00 0.00 79 995.9
20260508034153 33 45 1.6 1.6 0.00 0.00 0.00 80 996.3
20260508032653 32 180 1.6 1.6 0.00 0.00 0.00 81 995.9
20260508032153 32 225 1.6 1.6 0.00 0.00 0.00 81 995.9
20260508031153 32 90 1.6 1.6 0.00 0.00 0.00 83 996.3
20260508030653 31 68 3.2 3.2 0.00 0.00 0.00 84 995.9
20260508024653 30 90 3.2 3.2 0.00 0.00 0.00 88 995.9
20260508021653 28 23 3.2 3.2 0.00 0.00 0.00 92 995.9
20260508021153 28 225 4.8 4.8 0.00 0.00 0.00 92 995.9
20260508020153 28 45 4.8 4.8 0.00 0.00 0.00 94 995.9
20260507152807 28 225 3.2 3.2 0.00 0.00 0.00 98 995.6
20260507152307 27 338 3.2 3.2 0.00 0.00 0.00 99 995.6
20260507151807 27 293 3.2 3.2 0.00 0.00 0.00 99 995.3
20260507150856 27 225 3.2 3.2 0.00 0.00 0.00 98 995.3
20260507144356 27 270 4.8 4.8 0.00 0.00 0.00 97 994.6
20260507143856 27 248 4.8 4.8 0.00 0.00 0.00 97 994.6
20260507142357 27 248 11.3 11.3 0.00 0.00 0.00 99 994.6
20260507130055 28 270 3.2 3.2 0.23 0.00 0.66 99 992.9
20260507125054 29 203 4.8 4.8 0.23 0.00 0.66 98 992.6
20260507124555 30 270 4.8 4.8 0.23 0.00 0.66 96 992.2
20260507124054 30 248 4.8 4.8 0.18 0.00 0.61 93 992.2
20260507123554 32 225 4.8 4.8 0.10 0.00 0.53 88 992.2
20260507122555 32 315 6.4 6.4 0.00 0.00 0.43 80 992.2
20260507120555 33 248 6.4 6.4 0.00 0.00 0.43 78 991.9
20260507115555 34 270 6.4 6.4 0.00 0.00 0.43 78 991.9
20260507114555 33 23 6.4 6.4 0.00 0.00 0.43 78 991.9
20260507103906 35 0 8.0 8.0 0.00 0.00 0.43 77 991.5
20260507103406 35 270 6.4 6.4 0.00 0.00 0.43 78 991.5
20260507102406 35 248 6.4 6.4 0.00 0.00 0.43 79 991.5
20260507101406 35 225 6.4 6.4 0.00 0.00 0.43 76 991.9
20260507100406 36 293 6.4 6.4 0.00 0.00 0.43 76 991.9
20260507094406 35 180 6.4 6.4 0.00 0.00 0.43 78 992.2
20260507092905 35 293 6.4 6.4 0.00 0.00 0.43 78 992.2
20260507091905 35 248 6.4 6.4 0.00 0.00 0.43 78 992.2
20260507090905 35 203 4.8 4.8 0.00 0.00 0.43 78 992.2